Location: Wildlife_Club
(35.6000°N, 81.4330°W)
Time: 22:23:21
(UTC-04:00)

A-11 Canister half - Pass Details

Date: 26 June 2019
Orbit: 1514 x 1686 km, 47.2° (Epoch: 13 October)

Event Time Altitude Azimuth Distance (km) Brightness Sun altitude
Rises 07:43:52 0° 178° (S) 4,924 11.5 16.3°
Reaches altitude 10° 07:48:31 10° 161° (SSE) 3,938 11.2 17.2°
Maximum altitude 07:54:31 18° 124° (ESE) 3,357 11.5 18.4°
Drops below altitude 10° 08:00:26 10° 87° (E) 3,910 13.1 19.5°
Sets 08:04:58 0° 69° (ENE) 4,875 13.2 20.4°
